[[{"header":{"parameterUnit":"m.s-1","parameterCategory":1,"la1":30.2991,"la2":30.254,"lo1":-89.0895,"lo2":-89.0444,"dy":0.0017,"dx":0.0017,"nx":28,"ny":28,"refTime":"2024-07-02T09:00:00:Z","depth":0,"parameterNumber":2,"parameterNumberName":"U-component_of_WINDS"},"data":[0,0,0,0,0,0,0,0,0,0,0,0,0,0,0,0,0,0,0,0,0,0,0,0,0,0,0,0,0,0,0,0,0,0,0,0,0,0,0,0,0,0,0,0,0,0,0,0,0,0,0,0,0,0,0,0,0,0,3.2023,3.2024,0,3.2094,3.2094,3.2095,3.2042,3.204,3.2038,3.2036,3.2105,3.2109,3.2113,0,0,0,0,0,0,0,0,0,0,0,0,0,3.184,3.1843,3.2023,3.2024,3.2025,3.2094,3.2094,3.2095,3.2043,3.204,3.2037,3.2035,3.2104,3.2108,3.2113,0,0,0,0,0,0,0,0,0,0,0,0,0,3.1916,3.1844,3.2023,3.2007,3.2006,3.2093,3.2095,3.2096,3.2043,3.204,3.2036,3.2033,3.2102,3.2108,3.2114,3.222,0,0,3.2132,3.2135,0,0,0,0,0,0,0,0,3.1911,3.1922,3.2009,3.2008,3.2008,3.2056,3.2055,3.2137,3.2044,3.2029,3.2036,3.2032,3.2091,3.2098,3.2119,3.2223,3.2226,3.2133,3.2136,3.2139,3.214,0,0,0,0,0,0,0,3.1906,3.1919,3.2051,3.201,3.2009,3.1995,3.2002,3.207,3.2079,3.203,3.2027,3.2036,3.209,3.2113,3.212,3.2227,3.2132,3.2138,3.2141,3.2144,3.2417,3.2421,0,0,0,0,0,0,3.1903,3.1915,3.2049,3.2053,3.195,3.2001,3.2009,3.2044,3.2078,3.208,3.2039,3.2033,3.2104,3.2113,3.2122,3.2245,3.2139,3.2144,3.2148,3.2414,3.2418,3.2422,0,0,0,0,0,0,3.1899,3.1915,3.2046,3.1983,3.1999,3.2008,3.2048,3.2047,3.2069,3.2084,3.2085,3.2061,3.2102,3.2114,3.2195,3.2247,3.2147,3.2152,3.2409,3.2415,3.242,3.2494,0,0,0,0,0,0,3.1894,3.1914,3.1956,3.1985,3.2002,3.2119,3.2051,3.2051,3.208,3.2074,3.2105,3.2107,3.21,3.2186,3.2201,3.2253,3.2157,3.2405,3.2412,3.2418,3.2487,3.2501,3.2514,0,0,0,0,0,3.1888,3.1974,3.1958,3.1974,3.2054,3.2123,3.2132,3.2124,3.2085,3.2125,3.2134,3.2106,3.2239,3.2195,3.2211,3.2266,3.2401,3.241,3.2418,3.2481,3.2498,3.2513,0,0,0,0,0,0,3.195,3.1977,3.196,3.2059,3.2089,3.2113,3.2164,3.2144,3.2185,3.2177,3.2164,3.2171,3.2256,3.227,3.222,3.2368,3.2314,3.2326,3.2356,3.2373,3.2386,3.238,3.2162,0,0,0,0,0,3.1976,3.203,3.205,3.2135,3.2151,3.2155,3.2185,3.2176,3.2206,3.2218,3.2233,3.2263,3.2311,3.2343,3.2389,3.2489,3.2493,3.2535,3.2548,3.2559,3.2568,3.2619,3.2637,3.2449,3.2449,3.2449,0,0,3.2029,3.205,3.2085,3.2148,3.217,3.2225,3.2166,3.2227,3.2267,3.2227,3.2304,3.2316,3.2348,3.2439,3.248,3.2453,3.2621,3.2569,3.2578,3.2582,3.2629,3.2647,3.2663,3.2455,3.2454,3.2453,0,0,3.2152,3.2175,3.2246,3.227,3.2304,3.2306,3.2323,3.2351,3.2358,3.2435,3.2406,3.2452,3.2537,3.256,3.2582,3.2713,3.2687,3.2728,3.2797,3.2847,3.2861,3.2874,3.2917,3.2934,3.2738,3.2738,3.2738,0,3.2212,3.2295,3.2286,3.2348,3.2375,3.2342,3.2413,3.2436,3.2484,3.2502,3.2472,3.2575,3.2595,3.2689,3.272,3.2741,3.2758,3.2723,3.286,3.2873,3.2885,3.2926,3.2943,3.2743,3.2742,3.2742,3.2741,0,3.2366,3.2423,3.2477,3.2523,3.2557,3.2623,3.2622,3.2657,3.2645,3.265,3.2727,3.275,3.2798,3.282,3.2809,3.2911,3.2893,3.2862,3.2806,3.2907,3.2945,3.2961,3.2749,3.2748,3.2746,3.2745,0,0,3.253,3.257,3.2589,3.2608,3.2644,3.2687,3.2751,3.2798,3.2827,3.2861,3.2912,3.2984,3.2954,3.298,3.2971,3.3015,3.3113,3.2978,3.2978,3.2999,3.3223,3.3244,3.3263,3.3097,3.31,3.3102,3.3219,0,3.2653,3.2765,3.2757,3.2862,3.2913,3.2882,3.2937,3.2963,3.2969,3.3012,3.3018,3.3068,3.3027,3.3042,3.3084,3.3092,3.3157,3.3084,3.3141,3.3144,3.3132,3.3283,3.3306,3.3416,3.3235,3.3237,3.3239,0,3.281,3.2849,3.2959,3.2983,3.3004,3.3054,3.3095,3.3138,3.3166,3.3167,3.3196,3.3179,3.3241,3.3186,3.327,3.322,3.3244,3.3251,3.3255,3.3258,3.3195,3.3287,3.3451,3.3466,3.3263,3.3261,3.3259,0,3.2915,3.2995,3.3069,3.3088,3.3119,3.3154,3.3169,3.3194,3.3222,3.3258,3.3276,3.3319,3.3342,3.3374,3.3369,3.333,3.3453,3.3398,3.3453,3.3453,3.3479,3.3476,3.3645,3.3499,3.3499,3.3498,3.3498,0,3.3051,3.3118,3.3116,3.3162,3.3236,3.3227,3.33,3.331,3.3332,3.3378,3.3355,3.3398,3.3389,3.3432,3.3428,3.3496,3.3508,3.3508,3.3506,3.3509,3.3508,3.3522,3.3513,3.3503,3.3502,3.3501,3.35,0,3.3179,3.3181,3.326,3.3284,3.3291,3.3344,3.3363,3.3405,3.3409,3.3467,3.348,3.3486,3.3534,3.3533,3.3588,3.3585,3.3668,3.3659,3.3658,3.3655,3.3709,3.3703,3.389,3.3913,3.3755,3.3756,3.3757,0,3.3264,3.3315,3.3344,3.3373,3.339,3.3438,3.3466,3.3458,3.3488,3.3523,3.356,3.3607,3.3644,3.3722,3.373,3.3772,3.3761,3.3824,3.3767,3.3767,3.3758,3.3754,3.3757,3.3834,3.3836,3.3837,3.3839,0,3.3414,3.3412,3.3454,3.3496,3.353,3.3563,3.3593,3.3618,3.3613,3.3648,3.3697,3.3726,3.3782,3.3827,3.3866,3.3879,3.3857,3.3857,3.3871,3.3873,3.3869,3.3869,3.3685,3.3852,3.3851,3.385,3.3849,3.3848,3.3521,3.3564,3.359,3.3637,3.3658,3.3686,3.3726,3.3735,3.3776,3.3821,3.3814,3.3869,3.3893,3.3944,3.3961,3.4002,3.3979,3.4001,3.4006,3.4011,3.4015,3.3865,3.401,3.4009,3.4009,3.4009,3.4008,0,3.3667,3.3682,3.3725,3.3767,3.3803,3.3781,3.3812,3.3843,3.3892,3.3917,3.3953,3.4009,3.4052,3.4064,3.4105,3.4135,3.4126,3.4146,3.4142,3.4145,3.4035,3.4016,3.4153,3.4153,3.4153,3.4153,3.4153,3.4153,3.3747,3.3817,3.3818,3.3897,3.3911,3.3965,3.3984,3.4009,3.4028,3.4091,3.4127,3.4135,3.4153,3.4196,3.4234,3.4236,3.425,3.4274,3.4272,3.4168,3.4153,3.4139,3.4122,3.4278,3.4278,3.4378,3.4379,3.438]},{"header":{"parameterUnit":"m.s-1","parameterCategory":1,"la1":30.2991,"la2":30.254,"lo1":-89.0895,"lo2":-89.0444,"dy":0.0017,"dx":0.0017,"nx":28,"ny":28,"refTime":"2024-07-02T09:00:00:Z","depth":0,"parameterNumber":3,"parameterNumberName":"V-component_of_WINDS"},"data":[0,0,0,0,0,0,0,0,0,0,0,0,0,0,0,0,0,0,0,0,0,0,0,0,0,0,0,0,0,0,0,0,0,0,0,0,0,0,0,0,0,0,0,0,0,0,0,0,0,0,0,0,0,0,0,0,0,0,1.3125,1.3125,0,1.3142,1.3142,1.3142,1.3121,1.312,1.3119,1.3119,1.3138,1.3139,1.314,0,0,0,0,0,0,0,0,0,0,0,0,0,1.3073,1.3074,1.3125,1.3125,1.3125,1.3142,1.3142,1.3143,1.3121,1.312,1.3119,1.3118,1.3137,1.3139,1.314,0,0,0,0,0,0,0,0,0,0,0,0,0,1.3094,1.3075,1.3125,1.3116,1.3116,1.3142,1.3142,1.3143,1.3121,1.312,1.3119,1.3118,1.3137,1.3139,1.314,1.3176,0,0,1.3146,1.3147,0,0,0,0,0,0,0,0,1.3093,1.3096,1.3117,1.3117,1.3117,1.3128,1.3131,1.3154,1.3122,1.3119,1.3119,1.3117,1.3136,1.3137,1.3143,1.3177,1.3177,1.3146,1.3147,1.3148,1.3149,0,0,0,0,0,0,0,1.3091,1.3095,1.3132,1.3118,1.3117,1.3112,1.3114,1.3135,1.3134,1.3119,1.3118,1.312,1.3135,1.3142,1.3144,1.3178,1.3146,1.3148,1.3149,1.315,1.324,1.3241,0,0,0,0,0,0,1.3091,1.3094,1.3131,1.3132,1.3101,1.3114,1.3116,1.3126,1.3134,1.3134,1.3121,1.3119,1.3139,1.3141,1.3144,1.3185,1.3148,1.315,1.3151,1.3239,1.324,1.3242,0,0,0,0,0,0,1.309,1.3094,1.313,1.3112,1.3117,1.3116,1.3127,1.3127,1.3133,1.3135,1.3135,1.3128,1.3138,1.3142,1.3168,1.3186,1.3151,1.3152,1.3237,1.3239,1.3241,1.3269,0,0,0,0,0,0,1.3088,1.3094,1.3107,1.3113,1.3118,1.3154,1.3129,1.3128,1.3136,1.3134,1.3141,1.3141,1.3137,1.3165,1.317,1.3188,1.3154,1.3236,1.3238,1.324,1.3266,1.3271,1.3276,0,0,0,0,0,1.3086,1.3115,1.3108,1.3113,1.3135,1.3155,1.3158,1.3152,1.3138,1.3151,1.3152,1.3141,1.3183,1.3168,1.3173,1.3192,1.3234,1.3237,1.324,1.3264,1.327,1.3276,0,0,0,0,0,0,1.3112,1.3116,1.3108,1.3139,1.3147,1.3151,1.3168,1.3159,1.3171,1.3168,1.3161,1.3163,1.3191,1.3194,1.3177,1.3226,1.3206,1.321,1.3223,1.3229,1.3234,1.3232,1.3155,0,0,0,0,0,1.3121,1.3137,1.314,1.3167,1.3171,1.3169,1.3178,1.3172,1.318,1.3183,1.3186,1.3194,1.3209,1.3219,1.3233,1.3266,1.3268,1.3282,1.3287,1.3291,1.3294,1.3311,1.3318,1.3251,1.3251,1.3251,0,0,1.3141,1.3145,1.3155,1.3172,1.3177,1.3194,1.3172,1.3191,1.3203,1.3186,1.3211,1.3213,1.3222,1.3252,1.3265,1.3255,1.3313,1.3294,1.3297,1.3299,1.3315,1.3321,1.3327,1.3253,1.3253,1.3252,0,0,1.3185,1.319,1.3212,1.3218,1.3226,1.3224,1.3229,1.3235,1.3235,1.326,1.3247,1.3262,1.3288,1.3294,1.3301,1.3346,1.3336,1.3351,1.3376,1.3393,1.3398,1.3402,1.3418,1.3424,1.3354,1.3354,1.3354,0,1.3208,1.3233,1.3225,1.3245,1.3252,1.3237,1.326,1.3266,1.3278,1.3284,1.3272,1.3304,1.3309,1.3339,1.335,1.3356,1.3362,1.335,1.3398,1.3402,1.3406,1.3421,1.3427,1.3356,1.3356,1.3356,1.3355,0,1.326,1.3278,1.3295,1.3306,1.3316,1.3337,1.3333,1.3343,1.3337,1.3336,1.3361,1.3366,1.338,1.3387,1.3382,1.3417,1.341,1.3399,1.3379,1.3414,1.3428,1.3434,1.3358,1.3358,1.3357,1.3357,0,0,1.3322,1.3328,1.3335,1.3339,1.3346,1.3359,1.3379,1.3393,1.3402,1.341,1.3427,1.3449,1.3437,1.3445,1.344,1.3455,1.3489,1.3441,1.3441,1.3449,1.3527,1.3536,1.3543,1.3483,1.3484,1.3484,1.3527,0,1.3365,1.34,1.3393,1.3427,1.3442,1.3428,1.3445,1.3451,1.3451,1.3464,1.3464,1.3479,1.3463,1.3467,1.3481,1.3482,1.3505,1.3479,1.3498,1.3499,1.3496,1.355,1.356,1.3599,1.3532,1.3533,1.3534,0,1.3421,1.3431,1.3466,1.3469,1.3475,1.3491,1.3502,1.3515,1.3522,1.352,1.3528,1.352,1.354,1.352,1.3547,1.3529,1.3537,1.3538,1.3539,1.3541,1.3518,1.3553,1.3612,1.3618,1.3542,1.3541,1.3541,0,1.3461,1.3484,1.3507,1.3511,1.3517,1.3528,1.3531,1.3536,1.3544,1.3554,1.3559,1.3571,1.3578,1.3587,1.3583,1.3569,1.3611,1.359,1.361,1.361,1.362,1.3619,1.3681,1.3625,1.3625,1.3625,1.3625,0,1.351,1.3532,1.3525,1.354,1.3563,1.3556,1.358,1.3581,1.3585,1.36,1.3588,1.3602,1.3595,1.3608,1.3605,1.3627,1.3631,1.363,1.3629,1.3631,1.3631,1.3636,1.3633,1.3626,1.3626,1.3626,1.3625,0,1.356,1.3556,1.3581,1.3583,1.3584,1.3602,1.3604,1.3617,1.3615,1.3634,1.3638,1.3635,1.365,1.3646,1.3663,1.3661,1.3689,1.3685,1.3687,1.3686,1.3706,1.3704,1.3772,1.378,1.3719,1.372,1.3721,0,1.3591,1.3608,1.3612,1.362,1.3623,1.3637,1.3645,1.3638,1.3647,1.3655,1.3667,1.3681,1.3692,1.3716,1.3716,1.3728,1.3724,1.3747,1.3726,1.3727,1.3724,1.3723,1.3724,1.3751,1.3752,1.3752,1.3753,0,1.3648,1.3645,1.3656,1.3667,1.3676,1.3685,1.3692,1.37,1.3693,1.3703,1.3718,1.3726,1.3742,1.3756,1.3767,1.377,1.376,1.376,1.3765,1.3767,1.3767,1.3767,1.3698,1.3758,1.3758,1.3757,1.3757,1.3757,1.3689,1.3702,1.3707,1.372,1.3724,1.3731,1.3743,1.3743,1.3755,1.3767,1.3762,1.3779,1.3785,1.3798,1.3803,1.3816,1.3807,1.3815,1.3817,1.3819,1.3821,1.3765,1.3818,1.3818,1.3817,1.3817,1.3817,0,1.3744,1.3746,1.3758,1.3768,1.3778,1.3767,1.3775,1.3784,1.3799,1.3804,1.3814,1.3831,1.3844,1.3845,1.3857,1.3867,1.3863,1.387,1.387,1.387,1.3828,1.3822,1.3874,1.3874,1.3874,1.3873,1.3873,1.3873,1.3774,1.3796,1.3793,1.3817,1.3819,1.3835,1.3839,1.3846,1.385,1.3869,1.3879,1.3879,1.3883,1.3895,1.3906,1.3906,1.3911,1.392,1.3918,1.3879,1.3873,1.3868,1.3862,1.3921,1.3921,1.3959,1.396,1.396]}]]